Location: Friedersreuth
(49.9500°N, 12.0333°E)
Time: 09:00:11
(UTC+00:00)

Daily predictions for brighter satellites

Satellite Brightness Start Highest point End
(mag) Time Altitude Azimuth Time Altitude Azimuth Time Altitude Azimuth
Cosmos 1833 Rocket 3.6 19:47:11 10° NW 19:52:31 46° WSW 19:57:51 10° S
Cosmos 2297 4.2 19:49:46 10° S 19:54:59 39° ESE 20:00:16 10° NE
Cosmos 1943 Rocket 3.6 19:51:54 10° SE 19:55:41 19° E 19:59:28 10° ENE
STARLINK-1231 4.2 19:52:32 10° W 19:56:38 61° N 20:00:46 10° ENE
STARLINK-1123 3.6 19:53:19 10° WNW 19:57:29 88° SSW 20:01:39 10° ESE
STARLINK-1246 3.6 19:54:43 10° WSW 19:58:52 74° SSE 20:02:59 10° ENE
Cosmos 2082 Rocket 2.6 19:53:37 10° NNW 19:59:17 64° WSW 20:04:54 10° SSE
IGS 5A 3.6 19:56:13 10° SSE 20:00:19 60° ENE 20:04:26 10° N
Cosmos 1420 Rocket 4.3 19:56:09 10° SSW 20:01:21 74° WNW 20:06:34 10° NNE
Cosmos 1452 Rocket 3.5 19:56:19 10° SSW 20:01:35 82° ESE 20:06:55 10° NNE
STARLINK-1232 4.3 19:57:32 10° W 20:01:39 60° N 20:05:46 10° ENE
Cosmos 332 Rocket 3.8 19:57:01 10° S 20:01:53 66° ESE 20:06:45 10° NNE
BREEZE-M DEB 4.0 20:00:10 10° S 20:01:57 17° SE 20:04:42 10° E
Intercosmos 24 3.8 19:58:28 10° NNW 20:02:03 75° W 20:05:49 10° S
STARLINK-1097 3.6 19:58:20 10° WNW 20:02:30 85° SSW 20:06:39 10° ESE
Landsat 7 3.9 19:58:36 10° SSE 20:03:19 68° ENE 20:08:04 10° N
STARLINK-1224 3.6 19:59:40 10° WSW 20:03:49 78° SSE 20:07:58 10° ENE
STARLINK-1208 4.3 20:02:31 10° W 20:06:38 59° N 20:10:44 10° ENE
STARLINK-1099 3.6 20:03:18 10° WNW 20:07:28 81° SSW 20:11:37 10° ESE
Cosmos 1461 3.0 20:04:09 10° SSW 20:08:12 54° ESE 20:12:29 10° NE
STARLINK-1225 3.6 20:04:39 10° WSW 20:08:48 82° SSE 20:12:58 10° ENE
Okean 3 4.2 20:06:06 10° SSW 20:10:21 58° WNW 20:14:38 10° N
SAR-Lupe-2 3.8 20:06:59 10° NNE 20:10:31 49° E 20:14:01 10° S
Cosmos 2369 Rocket 3.6 20:07:47 10° SE 20:11:36 19° E 20:15:23 10° ENE
STARLINK-1271 4.3 20:07:33 10° W 20:11:39 58° N 20:15:45 10° ENE
STARLINK-1104 3.6 20:08:17 10° WNW 20:12:26 77° SSW 20:16:34 10° ESE
STARLINK-1212 3.9 20:10:44 10° WNW 20:13:45 46° N 20:16:47 10° E
STARLINK-1230 3.6 20:09:37 10° WSW 20:13:46 86° SSE 20:17:56 10° ENE
STARLINK-1105 3.9 20:11:12 10° WNW 20:14:13 46° N 20:17:14 10° E
NOSS 2-2 (C) 4.0 20:11:23 10° S 20:14:29 29° ESE 20:17:54 10° ENE
STARLINK-1247 3.9 20:12:05 10° WNW 20:15:07 46° N 20:18:09 10° E
STARLINK-1227 3.9 20:12:35 10° WNW 20:15:36 46° N 20:18:37 10° E
STARLINK-1226 3.9 20:13:26 10° WNW 20:16:28 46° N 20:19:30 10° E
STARLINK-1154 4.3 20:12:33 10° W 20:16:38 57° N 20:20:45 10° ENE
SL-4 R/B 3.9 20:15:38 10° W 20:16:55 12° WSW 20:18:10 10° SW
STARLINK-1215 3.9 20:14:20 10° WNW 20:17:22 46° N 20:20:25 10° E
STARLINK-1144 3.6 20:13:16 10° WNW 20:17:24 73° SSW 20:21:27 10° ESE
Cosmos 2221 Rocket 4.5 20:13:49 10° SSW 20:18:15 54° WNW 20:22:45 10° N
ATLAS 2AS CENTAUR R/B 4.3 20:13:38 10° SE 20:18:42 19° ESE 20:23:47 10° ENE
STARLINK-1243 3.6 20:14:36 10° WSW 20:18:46 89° S 20:22:56 10° ENE
STARLINK-1217 3.9 20:16:09 10° WNW 20:19:12 47° N 20:22:14 10° E
SPOT 5 3.5 20:14:20 10° SE 20:19:26 54° ENE 20:24:41 10° N
NOSS 3-2 (A) 4.2 20:12:10 10° NW 20:19:28 72° NE 20:27:47 10° SE
STARLINK-1229 3.9 20:17:04 10° WNW 20:20:07 47° N 20:23:09 10° E
STARLINK-1270 3.9 20:17:58 10° WNW 20:21:00 47° N 20:24:03 10° E
STARLINK-1197 4.3 20:17:31 10° W 20:21:37 56° N 20:25:43 10° ENE
NOSS 8 (F) 4.1 20:18:34 10° SW 20:21:44 86° SE 20:24:49 10° NE
Meteor 1-13 Rocket 4.5 20:16:16 10° SSW 20:21:54 77° WNW 20:27:43 10° N
STARLINK-1103 3.7 20:18:14 10° WNW 20:22:22 69° SSW 20:26:14 12° SE
STARLINK-1189 3.8 20:19:45 10° WNW 20:22:48 47° N 20:25:51 10° E
STARLINK-1188 3.8 20:20:40 10° WNW 20:23:43 47° N 20:26:46 10° E
STARLINK-1236 3.7 20:19:34 10° WSW 20:23:43 87° NNW 20:27:54 10° ENE
ERS-1 Rocket 3.1 20:19:40 10° SSE 20:24:37 67° ENE 20:29:38 10° N
STARLINK-1187 3.8 20:21:46 10° WNW 20:24:48 49° N 20:27:49 10° E
STARLINK-1191 3.8 20:23:07 10° WNW 20:26:09 48° N 20:29:10 10° E
STARLINK-1198 4.4 20:22:31 10° W 20:26:37 56° N 20:30:42 10° ENE
STARLINK-1221 3.8 20:24:05 10° WNW 20:27:07 48° N 20:30:08 10° E
STARLINK-1101 3.7 20:23:13 10° WNW 20:27:20 65° SSW 20:31:00 13° SE
STARLINK-1222 3.8 20:24:56 10° WNW 20:27:58 48° N 20:31:00 10° E
STARLINK-1214 3.8 20:25:49 10° WNW 20:28:52 48° N 20:31:53 10° E
Okean 2 4.5 20:25:56 12° SE 20:29:03 29° E 20:32:40 10° NNE
Cosmos 1066 Rocket 4.1 20:24:11 10° S 20:29:31 69° E 20:34:52 10° NNE
USA 245 3.3 20:28:12 10° S 20:31:03 44° WSW 20:33:30 10° NNW
USA 238 DEB 4.0 20:24:13 10° NW 20:31:25 78° NE 20:38:25 12° SE
USA 238 4.0 20:24:19 10° NW 20:31:31 78° NE 20:38:32 12° SE
STARLINK-1199 4.4 20:27:32 10° W 20:31:38 55° N 20:35:43 10° ENE
STARLINK-1102 3.8 20:28:13 10° WNW 20:32:19 61° SSW 20:35:48 14° SE
STARLINK-1228 3.7 20:29:53 10° WNW 20:33:21 58° NNE 20:36:49 10° E
Okean 1 Rocket 3.1 20:29:05 10° N 20:33:35 86° W 20:37:54 11° S
STARLINK-1269 3.7 20:29:33 10° WSW 20:33:43 80° NNW 20:37:52 10° ENE
Cosmos 1805 3.4 20:29:58 10° N 20:33:53 60° ENE 20:37:07 14° SSE
Cosmos 2278 Rocket 3.7 20:29:24 10° WSW 20:34:46 42° NW 20:40:10 10° NNE
Resurs 01 Rocket 3.5 20:31:00 10° SSW 20:34:47 27° W 20:38:37 10° NW
TSX-5 4.3 20:29:19 10° SSW 20:34:49 90° SE 20:39:04 10° NNE
Nadezhda 4 Rocket 4.0 20:29:53 10° S 20:36:00 74° E 20:42:06 10° NNE
STARLINK-1210 4.4 20:32:31 10° W 20:36:37 55° N 20:40:42 10° ENE
STARLINK-1235 3.6 20:33:31 10° WNW 20:36:43 55° NNE 20:39:55 10° E
STARLINK-1111 3.8 20:33:12 10° WNW 20:37:16 57° SSW 20:40:34 15° SE
STARLINK-1200 3.8 20:34:32 10° WSW 20:38:41 77° NNW 20:42:50 10° ENE
Cosmos 1455 Rocket 4.0 20:35:08 10° N 20:39:08 35° ENE 20:42:18 15° SE
STARLINK-1219 4.4 20:37:31 10° W 20:41:36 55° N 20:45:41 10° ENE
STARLINK-1073 3.9 20:38:12 10° WNW 20:42:15 53° SSW 20:45:22 16° SE
SL-8 R/B 4.1 20:37:51 10° W 20:42:28 48° SSW 20:46:16 15° SE
STARLINK-1192 3.8 20:39:32 10° WSW 20:43:41 74° NNW 20:47:50 10° ENE
ATLAS CENTAUR R/B 3.6 20:45:09 10° NNW 20:45:54 12° N 20:46:41 10° NNE
STARLINK-1211 4.4 20:42:32 10° W 20:46:37 55° N 20:50:42 10° E
ATLAS 3B CENTAUR R/B 4.4 20:39:49 10° SW 20:47:11 17° SSW 20:50:57 13° SSE
STARLINK-1121 4.0 20:43:11 10° WNW 20:47:12 50° SSW 20:50:08 17° SE
SL-4 R/B 3.5 20:44:29 10° S 20:48:13 23° SE 20:52:00 10° E
Terra 1.9 20:44:22 15° SSE 20:48:17 68° ENE 20:53:02 10° N
Cosmos 1110 Rocket 3.9 20:43:20 10° SSW 20:48:31 83° ESE 20:53:43 10° NNE
STARLINK-1244 3.9 20:44:31 10° WSW 20:48:39 72° NNW 20:52:48 10° ENE
Spot 2 Rocket 4.4 20:44:54 10° S 20:49:40 43° W 20:54:30 10° NNW
SPOT 1/Viking Rocket 4.0 20:45:24 10° S 20:50:29 58° W 20:55:35 10° NNW
Abrixas rocket 3.5 20:48:26 10° W 20:50:48 22° SSW 20:51:50 18° S
Cosmos 1842 4.0 20:48:51 17° SSE 20:51:19 35° E 20:54:54 10° NNE
CARTOSAT-1 3.7 20:47:49 13° S 20:51:34 76° WSW 20:55:56 10° NNW
STARLINK-1245 4.4 20:47:31 10° WNW 20:51:37 55° N 20:55:41 10° E
STARLINK-1106 4.1 20:48:12 10° WNW 20:52:11 47° SSW 20:54:56 18° SSE
NOSS 8 (H) 4.3 20:49:49 10° SW 20:52:54 77° NW 20:56:01 10° NE
ERBS 4.4 20:50:01 10° WNW 20:52:58 29° NNW 20:55:57 10° NE
STARLINK-1138 4.0 20:49:31 10° W 20:53:39 69° NNW 20:57:47 10° ENE
STARLINK-1234 3.3 20:51:18 10° WNW 20:54:33 65° NNE 20:57:43 11° E
STARLINK-1233 4.4 20:52:29 10° WNW 20:56:34 55° N 21:00:40 10° E
STARLINK-1112 4.2 20:53:10 10° WNW 20:57:07 44° SW 20:59:42 19° SSE
STARLINK-1143 4.0 20:54:29 10° W 20:58:37 67° NNW 21:02:45 10° ENE
STARLINK-1209 3.2 20:57:16 10° WNW 21:00:33 71° NNE 21:03:27 13° ESE
STARLINK-1204 4.3 20:57:29 10° WNW 21:01:35 55° N 21:05:40 10° E
STARLINK-1128 4.2 20:58:09 10° WNW 21:02:04 41° SW 21:04:28 20° SSE
STARLINK-1241 4.1 20:59:31 10° W 21:03:38 65° NNW 21:07:47 10° ENE
SWAS 4.5 20:59:30 10° NNW 21:03:49 80° WSW 21:06:45 20° SSE
Cosmos 1331 Rocket 4.1 21:00:10 10° SSW 21:05:20 81° WNW 21:10:34 10° NNE
Aureole 2 Rocket 3.9 21:03:20 10° SW 21:06:09 32° WNW 21:08:52 10° N
STARLINK-1238 4.3 21:02:30 10° WNW 21:06:36 56° N 21:10:41 10° E
Cosmos 1733 3.1 21:03:09 10° N 21:07:00 86° W 21:09:32 20° S
STARLINK-1113 4.3 21:03:10 10° WNW 21:07:02 38° SW 21:09:15 21° SSE
STARLINK-1239 4.1 21:04:30 10° W 21:08:37 63° NNW 21:12:46 10° ENE
STARLINK-1201 4.3 21:07:30 10° WNW 21:11:35 56° N 21:15:41 10° E
COSMOS 2455 4.3 21:09:45 16° SE 21:11:56 20° ESE 21:16:07 10° ENE
STARLINK-1119 4.4 21:08:12 10° WNW 21:12:01 36° SW 21:14:04 22° SSE
Cosmos 1378 3.6 21:09:41 10° SSW 21:13:17 60° WNW 21:16:58 10° N
STARLINK-1240 4.1 21:09:29 10° W 21:13:36 62° NNW 21:17:43 10° ENE
Cosmos 1486 Rocket 4.1 21:09:13 10° NNW 21:14:33 77° ENE 21:18:13 20° SSE
USA 215 3.8 21:08:49 10° E 21:15:14 60° NNE 21:21:39 10° WNW
Cosmos 1302 Rocket 4.0 21:10:14 10° SSW 21:15:25 70° ESE 21:20:43 10° NNE
Cosmos 1271 Rocket 3.8 21:14:22 22° SE 21:16:02 30° E 21:19:30 10° NNE
Cosmos 1544 Rocket 3.8 21:11:44 10° N 21:16:02 58° ENE 21:18:39 22° SSE
STARLINK-1206 4.3 21:12:30 10° WNW 21:16:36 57° N 21:20:42 10° E
Cosmos 1242 Rocket 3.1 21:15:26 24° SSE 21:17:11 42° E 21:20:41 10° NNE
MTI 3.6 21:14:10 10° NNE 21:17:19 69° ESE 21:18:58 25° S
STARLINK-1203 4.2 21:14:19 10° W 21:18:30 61° N 21:22:40 10° ENE
STARLINK-1216 4.2 21:14:29 10° W 21:18:35 61° N 21:22:42 10° ENE
STARLINK-60 3.7 21:20:10 29° SE 21:20:10 29° SE 21:22:56 10° E
Cosmos 1092 Rocket 4.0 21:15:30 11° S 21:21:32 83° W 21:27:44 10° N
STARLINK-1205 4.2 21:17:29 10° WNW 21:21:35 58° N 21:25:41 10° E
NOSS 2-2 (D) 3.5 21:19:11 10° SW 21:22:46 71° NW 21:26:57 10° NE
STARLINK-1237 4.2 21:19:29 10° W 21:23:35 59° N 21:27:42 10° ENE
CENTAUR R/B 3.2 21:16:03 10° NW 21:24:00 89° NE 21:31:08 17° SE
Cosmos 1707 3.7 21:24:35 23° SE 21:26:08 31° E 21:29:36 10° NNE
STARLINK-1218 4.2 21:22:29 10° WNW 21:26:36 59° N 21:30:42 10° E
ATLAS 3B R/B 3.2 21:20:36 10° NW 21:27:14 56° NE 21:33:57 11° ESE
SL-27 R/B 2.7 21:24:09 10° NNW 21:27:43 63° WSW 21:29:28 27° S
STARLINK-1202 4.3 21:24:29 10° W 21:28:35 58° N 21:32:41 10° ENE
NOSS 3-2 (C) 4.1 21:21:47 10° NW 21:29:13 80° SW 21:35:37 19° SSE
Cosmos 1766 4.4 21:26:11 10° NNW 21:29:54 38° W 21:32:47 15° SSW
Cosmos 1726 3.5 21:27:51 10° N 21:31:07 28° ENE 21:32:50 20° ESE
STARLINK-1254 4.1 21:27:28 10° WNW 21:31:35 60° N 21:35:42 10° E
ALOS 2 4.1 21:30:24 14° ESE 21:33:11 26° ENE 21:36:50 10° N
Cosmos 1867 3.7 21:28:42 10° NW 21:34:11 72° NE 21:38:07 19° SE
COSMOS 2487 3.8 21:32:10 10° N 21:35:18 30° ENE 21:37:03 19° ESE
STARLINK-1231 4.1 21:32:26 10° WNW 21:36:34 61° N 21:40:41 10° E
STARLINK-1246 4.3 21:34:30 10° W 21:38:35 56° N 21:42:41 10° ENE
Cosmos 1943 Rocket 2.3 21:33:10 10° SSW 21:38:44 80° WNW 21:44:23 10° NNE
Cosmos 1992 Rocket 4.4 21:36:08 23° SSE 21:39:00 46° ESE 21:43:59 10° NE
NOSS 3-4 (A) 3.8 21:36:32 20° S 21:40:17 42° ESE 21:46:09 10° NE
NOSS 3-4 (C) 3.8 21:36:40 20° S 21:40:23 41° ESE 21:46:16 10° NE
STARLINK-1232 4.1 21:37:27 10° WNW 21:41:34 63° N 21:45:42 10° E
SeaSat 1 3.1 21:37:50 10° NE 21:42:25 37° ESE 21:44:34 25° SSE
EO 1 Del DPAF 3.7 21:39:27 10° NNE 21:43:06 45° E 21:44:29 30° SSE
STARLINK-1224 4.3 21:39:30 10° W 21:43:34 56° N 21:47:40 10° ENE
STARLINK-1208 4.0 21:42:24 10° WNW 21:46:32 64° NNE 21:50:40 10° E
Cosmos 1975 Rocket 3.8 21:44:36 14° SSW 21:48:20 51° WNW 21:52:39 10° N
STARLINK-1225 4.3 21:44:30 10° W 21:48:35 55° N 21:52:41 10° ENE
STARLINK-1212 2.7 21:46:37 10° WNW 21:49:44 79° SSW 21:50:47 38° SE
STARLINK-1105 2.7 21:47:05 10° WNW 21:50:12 78° SSW 21:51:13 39° SE
Meteor 2-10 4.1 21:45:52 10° N 21:50:55 66° ENE 21:53:43 26° SSE
STARLINK-1247 2.7 21:47:58 10° WNW 21:51:05 77° SSW 21:52:06 39° SE
STARLINK-1271 4.0 21:47:25 10° WNW 21:51:34 66° NNE 21:55:42 10° E
STARLINK-1227 2.7 21:48:27 10° WNW 21:51:34 76° SSW 21:52:32 40° SE
Cosmos 292 Rocket 3.7 21:48:20 18° SSW 21:51:58 88° ESE 21:56:52 10° NNE
BREEZE-M DEB (TANK) 3.3 21:39:37 10° WSW 21:52:13 76° S 21:55:44 10° E
STARLINK-1226 2.7 21:49:19 10° WNW 21:52:26 76° SSW 21:53:24 40° SE
BREEZE-M DEB (TANK) 2.8 21:49:06 10° W 21:52:53 78° S 21:56:53 10° ESE
STARLINK-1215 2.7 21:50:13 10° WNW 21:53:20 75° SSW 21:54:16 41° SE
STARLINK-1230 4.4 21:49:30 10° W 21:53:34 55° N 21:57:40 10° ENE
Cosmos 2227 Rocket 4.4 21:49:58 10° N 21:54:06 20° NE 21:58:13 10° E
RESURS DK-1 4.3 21:53:57 14° ESE 21:54:09 14° ESE 21:56:24 10° ENE
S3M 4.0 21:48:05 10° N 21:54:16 77° E 21:58:10 24° SSE
Cosmos 2369 Rocket 2.2 21:49:14 10° SSW 21:54:55 82° WNW 22:00:37 10° NNE
STARLINK-1217 2.7 21:52:02 10° WNW 21:55:09 73° SSW 21:56:01 43° SE
STARLINK-1229 2.7 21:52:56 10° WNW 21:56:04 72° SSW 21:56:54 44° SE
STARLINK-1154 3.9 21:52:24 10° WNW 21:56:33 68° NNE 22:00:42 10° E
STARLINK-1270 2.7 21:53:50 10° WNW 21:56:57 71° SSW 21:57:45 45° SE
Aureole 3 Rocket 4.5 21:51:50 10° NNW 21:57:55 73° W 22:03:53 20° S
STARLINK-1243 4.4 21:54:31 10° W 21:58:35 55° N 22:02:41 10° ENE
STARLINK-1189 2.7 21:55:38 10° WNW 21:58:44 69° SSW 21:59:29 46° SE
STARLINK-1188 2.8 21:56:33 10° WNW 21:59:39 68° SSW 22:00:22 47° SE
STARLINK-1187 2.8 21:57:39 10° WNW 22:00:43 61° SSW 22:01:14 50° SSE
ATLAS CENTAUR R/B 2.0 21:59:35 31° SSE 22:00:45 38° ESE 22:04:36 10° NE
Cosmos 1340 Rocket 3.1 21:56:44 10° N 22:00:46 58° ENE 22:02:31 31° SE
STARLINK-1197 3.8 21:57:22 10° WNW 22:01:31 71° NNE 22:05:40 10° E
STARLINK-1191 2.8 21:58:59 10° WNW 22:02:04 65° SSW 22:02:39 51° SSE
Aureole 3 3.7 21:59:35 10° N 22:02:37 35° ENE 22:03:24 29° ESE
STARLINK-1221 2.8 21:59:56 10° WNW 22:03:01 64° SSW 22:03:34 51° SSE
STARLINK-1236 4.4 21:59:29 10° W 22:03:34 55° N 22:07:39 10° ENE
STARLINK-1222 2.8 22:00:47 10° WNW 22:03:53 64° SSW 22:04:23 52° SSE
Thor Agena Rocket 3.5 21:58:35 10° NNE 22:03:56 80° ESE 22:07:12 24° S
STARLINK-1214 2.8 22:01:41 10° WNW 22:04:46 63° SSW 22:05:15 52° SSE
NOSS 7 (A) 4.4 22:03:59 36° SSW 22:05:07 78° SE 22:08:02 10° NE
Cosmos 1025 Rocket 2.9 22:02:57 29° S 22:05:07 87° E 22:09:27 10° N
Cosmos 1908 4.4 22:02:20 10° N 22:05:49 33° ENE 22:07:21 24° ESE
EXPRESS MD2 4.2 22:02:09 10° W 22:06:20 88° S 22:15:17 10° E
STARLINK-1198 3.8 22:02:21 10° WNW 22:06:31 73° NNE 22:10:32 11° ESE
Cosmos 1553 Rocket 4.2 22:01:29 10° NNW 22:07:44 67° W 22:11:43 23° S
BREEZE M DEB (TANK) 1.4 22:05:35 10° W 22:08:28 80° S 22:08:33 77° SE
ATLAS 2AS CENTAUR R/B 3.0 22:00:34 10° SSW 22:08:29 69° SE 22:16:21 10° NE
Cosmos 1656 Rocket 3.6 22:04:50 22° SSW 22:08:32 70° ESE 22:14:05 10° NNE
Cosmos 1953 2.2 22:05:05 10° N 22:09:07 84° E 22:10:41 36° SSE
BREEZE-M DEB (TANK) 4.2 21:57:59 10° WNW 22:09:52 51° SW 22:11:56 29° SSE
Cosmos 1470 3.6 22:06:26 10° NNW 22:10:07 42° W 22:11:51 25° SSW
STARLINK-1228 3.4 22:07:11 10° WNW 22:10:35 49° SSW 22:11:08 43° S
STARLINK-1199 3.7 22:07:21 10° WNW 22:11:31 76° NNE 22:15:21 12° ESE
STARLINK-1235 3.2 22:09:54 10° WNW 22:13:02 47° SSW 22:13:12 46° SSW
APEX 4.3 22:06:47 10° SSW 22:13:08 81° WNW 22:18:22 10° NNE
STARLINK-1269 4.4 22:09:30 10° WNW 22:13:34 55° N 22:17:40 10° E
Cosmos 2292 Rocket 3.4 22:13:24 37° SE 22:14:18 47° E 22:17:23 10° NNE
Cosmos 968 Rocket 4.1 22:10:03 10° NW 22:14:57 45° WSW 22:17:31 25° SSW
STARLINK-1210 3.7 22:12:19 10° WNW 22:16:29 79° NNE 22:20:07 13° ESE
STARLINK-1200 4.3 22:14:28 10° WNW 22:18:33 55° N 22:22:38 10° E
Cosmos 1655 Rocket 4.0 22:15:01 24° S 22:19:02 90° E 22:25:22 10° N
SL-4 R/B 1.2 22:20:18 50° NNE 22:20:18 50° NNE 22:22:06 10° N
Cosmos 1777 Rocket 4.4 22:14:56 10° NNW 22:20:06 56° ENE 22:23:18 23° SE
STARLINK-1219 3.6 22:17:17 10° WNW 22:21:28 82° NNE 22:24:53 15° ESE
ATLAS 5 CENTAUR R/B 1.2 22:21:46 33° SSW 22:23:01 59° SE 22:25:13 10° ENE
STARLINK-1192 4.3 22:19:29 10° WNW 22:23:34 55° N 22:27:39 10° E
Cosmos 1758 4.4 22:19:50 10° NNW 22:23:35 36° W 22:25:25 24° SW
STARLINK-52 3.7 22:26:27 36° ESE 22:26:27 36° ESE 22:28:47 10° ENE
STARLINK-1211 3.6 22:22:17 10° WNW 22:26:28 85° NNE 22:29:40 16° ESE
Terra 3.9 22:23:22 10° SW 22:26:32 17° W 22:29:42 10° NW
Cosmos 2228 3.4 22:22:40 10° N 22:26:51 52° ENE 22:28:36 30° SE
SL-4 R/B 2.3 22:22:38 10° WSW 22:27:26 70° SSE 22:32:15 10° ENE
Cosmos 1726 Rocket 4.2 22:23:25 10° N 22:27:36 44° ENE 22:29:31 27° SE
Meteor 2-15 4.4 22:21:26 10° N 22:27:37 85° E 22:31:06 28° SSE
STARLINK-1244 4.3 22:24:28 10° WNW 22:28:33 56° N 22:32:39 10° E
STARLINK-1234 4.0 22:27:45 10° W 22:30:16 32° SW 22:30:16 32° SW
STARLINK-1245 3.5 22:27:15 10° WNW 22:31:26 89° NE 22:34:26 18° ESE
In-Cosmos 22 4.0 22:30:05 29° S 22:32:52 83° E 22:38:11 10° NNE
Cosmos 921 Rocket 4.5 22:31:52 21° ESE 22:32:54 23° E 22:36:18 10° NE
STARLINK-1138 4.3 22:29:28 10° WNW 22:33:33 57° N 22:37:39 10° E
STARLINK-1233 3.5 22:32:13 10° WNW 22:36:23 87° SSW 22:39:12 20° ESE
STARLINK-1209 4.3 22:33:58 10° W 22:36:13 27° WSW 22:36:13 27° WSW
Cosmos 2266 Rocket 3.9 22:33:43 26° S 22:37:19 89° NW 22:43:23 10° N
STARLINK-1143 4.2 22:34:26 10° WNW 22:38:31 57° N 22:42:38 10° E
STARLINK-1204 3.5 22:37:13 10° WNW 22:41:23 84° SSW 22:43:59 22° ESE
SJ 16-02 3.5 22:39:43 10° N 22:43:08 21° NE 22:46:32 10° ESE
STARLINK-1241 4.2 22:39:28 10° WNW 22:43:34 58° N 22:47:40 10° E
STARLINK-1238 3.5 22:42:13 10° WNW 22:46:23 80° SSW 22:48:47 24° ESE
Meteor 2-15 Rocket 4.4 22:41:22 10° N 22:47:33 86° W 22:50:55 29° S
STARLINK-1239 4.2 22:44:26 10° WNW 22:48:32 60° N 22:52:39 10° E
Helios 1B rocket 4.1 22:45:45 10° NE 22:48:56 21° E 22:50:09 19° ESE
Cosmos 1674 2.6 22:48:20 45° S 22:49:24 80° E 22:53:13 10° NNE
STARLINK-1201 3.5 22:47:11 10° WNW 22:51:20 75° SSW 22:53:33 26° SE
STARLINK-1240 4.1 22:49:24 10° WNW 22:53:32 61° N 22:57:38 10° E
STARLINK-60 3.2 22:52:52 10° WSW 22:56:03 69° NNW 22:59:14 10° ENE
STARLINK-1206 3.5 22:52:11 10° WNW 22:56:20 71° SSW 22:58:21 29° SE
COSMOS 2455 2.8 22:52:50 20° SW 22:57:07 88° WNW 23:03:12 10° NE
STARLINK-1375 4.5 22:58:33 29° ESE 22:58:33 29° ESE 23:01:13 10° E
Cosmos 2219 3.8 22:52:19 10° NNW 22:57:55 54° NE 23:02:18 16° SE
USA 215 3.2 22:52:57 17° SE 22:58:13 70° SW 23:04:47 10° WNW
STARLINK-1216 4.1 22:54:23 10° WNW 22:58:30 62° NNE 23:02:37 10° E
STARLINK-1203 4.1 22:54:28 10° WNW 22:58:38 63° N 23:02:49 10° E
STARLINK-1352 4.4 23:01:56 28° ESE 23:01:56 28° ESE 23:04:22 10° E
STARLINK-1350 4.3 23:01:49 31° ESE 23:01:49 31° ESE 23:04:39 10° ENE
STARLINK-1205 3.5 22:57:09 10° WNW 23:01:17 67° SSW 23:03:07 31° SE
Cosmos 2297 Rocket 2.9 22:56:39 10° NNW 23:02:10 49° NE 23:07:00 13° SE
Helios 1A 2.9 23:01:35 39° S 23:03:06 80° WSW 23:07:19 10° NNW
STARLINK-1237 4.0 22:59:23 10° WNW 23:03:31 64° NNE 23:07:38 10° E
Lacrosse 4 Rocket 3.7 23:02:12 10° NNW 23:05:46 24° NE 23:09:14 10° E
Cosmos 1726 3.7 23:03:10 10° NW 23:06:14 24° W 23:07:20 21° WSW
STARLINK-1218 3.5 23:02:10 10° WNW 23:06:16 64° SSW 23:07:55 34° SE
STARLINK-1368 4.1 23:08:27 35° SE 23:08:27 35° SE 23:11:37 10° ENE
Cosmos 1174 4.0 23:06:36 28° WSW 23:08:09 56° NW 23:12:02 10° NNE
STARLINK-1202 4.0 23:04:22 10° WNW 23:08:30 66° NNE 23:12:38 10° E
ALOS 2 3.3 23:07:47 30° SW 23:09:20 41° W 23:13:31 10° NNW
Timation 2 Rocket 3.9 23:03:16 10° NW 23:09:34 72° WSW 23:12:55 28° SSE
Cosmos 2058 Rocket 3.1 23:05:40 10° N 23:10:08 77° E 23:11:58 35° SSE
COSMOS 2487 4.0 23:07:29 10° NW 23:10:12 22° WSW 23:10:32 21° WSW
STARLINK-1254 3.6 23:07:08 10° WNW 23:11:14 60° SSW 23:12:41 36° SSE
STARLINK-1369 4.0 23:11:47 38° SE 23:11:47 38° SE 23:15:07 10° ENE
CENTAUR R/B 4.2 23:07:23 10° NW 23:14:13 30° WSW 23:18:17 21° SSW
STARLINK-1372 3.9 23:15:07 40° SE 23:15:07 40° SE 23:18:38 10° ENE
STARLINK-1231 3.6 23:12:07 10° WNW 23:16:11 56° SSW 23:17:27 38° SSE
Meteor 2-5 Rocket 3.7 23:14:12 31° S 23:17:02 87° ESE 23:22:43 10° NNE
ATLAS 3B R/B 3.1 23:11:29 10° NW 23:17:52 45° WSW 23:21:09 27° S
STARLINK-1246 3.9 23:14:21 10° WNW 23:18:30 70° NNE 23:22:38 10° E
STARLINK-1378 3.7 23:18:28 42° SSE 23:18:32 42° SE 23:22:08 10° ENE
SeaSat 1 3.5 23:15:20 10° NNE 23:19:59 42° NW 23:24:21 11° WSW
Cosmos 1606 Rocket 4.1 23:15:58 10° NNW 23:20:05 45° W 23:21:36 32° SW
SL-14 R/B 3.3 23:19:11 42° SSE 23:20:17 64° E 23:24:07 10° NNE
FALCON 9 DEB 2.9 23:20:07 45° SW 23:21:03 77° SSE 23:24:31 10° ENE
STARLINK-1232 3.7 23:17:07 10° WNW 23:21:10 52° SSW 23:22:15 40° SSE
STARLINK-1379 3.7 23:21:51 44° SSE 23:22:02 44° SSE 23:25:40 10° ENE
STARLINK-1224 3.8 23:19:19 10° WNW 23:23:28 72° NNE 23:27:37 10° ESE
STARLINK-1329 3.6 23:23:14 44° SSE 23:23:29 45° SSE 23:27:08 10° ENE
Meteor 2-21 4.4 23:20:59 29° S 23:24:22 86° ESE 23:30:37 10° N
STARLINK-29 3.1 23:24:02 22° W 23:25:56 73° NNW 23:29:08 10° ENE
STARLINK-1208 3.8 23:22:05 10° WNW 23:26:06 49° SSW 23:27:00 41° S
SL-16 R/B 4.1 23:21:22 10° ESE 23:26:32 29° ENE 23:31:45 10° N
STARLINK-1362 3.6 23:26:40 46° SSE 23:27:02 48° SSE 23:30:44 10° ENE
ATLAS CENTAUR R/B 1.2 23:26:08 10° NW 23:28:19 74° NE 23:32:29 10° ESE
STARLINK-1225 3.8 23:24:19 10° WNW 23:28:28 75° NNE 23:32:37 10° ESE
STARLINK-1373 3.6 23:30:05 46° S 23:30:36 50° SSE 23:34:19 10° ENE
NOSS 3-4 (A) 4.2 23:25:09 10° WSW 23:31:03 53° NW 23:37:27 10° NE
STARLINK-1271 3.9 23:27:07 10° WNW 23:31:06 46° SSW 23:31:49 41° S
NOSS 3-4 (C) 4.1 23:25:14 10° WSW 23:31:08 54° NW 23:37:33 10° NE
RESURS DK-1 2.5 23:29:48 32° SW 23:31:38 72° WNW 23:35:47 10° NNE
STARLINK-1365 3.5 23:31:12 46° S 23:31:51 52° SSE 23:35:35 10° ENE
STARLINK-1230 3.7 23:29:17 10° WNW 23:33:27 78° NNE 23:37:36 10° ESE
STARLINK-1390 3.5 23:33:34 46° S 23:34:13 53° SSE 23:37:57 10° ENE
Cosmos 1697 Rocket 4.2 23:32:47 17° SE 23:35:28 23° ESE 23:39:49 10° NE
Cosmos 2084 3.5 23:33:36 30° SW 23:35:45 88° SE 23:40:15 10° NE
STARLINK-1154 3.9 23:32:07 10° WNW 23:36:03 43° SW 23:36:35 40° SSW
Cosmos 1812 Rocket 4.4 23:32:02 10° N 23:36:21 45° ENE 23:38:55 22° SE
Cosmos 1626 2.1 23:36:00 44° SSW 23:37:05 78° W 23:40:50 10° N
BREEZE-M R/B 3.6 23:31:44 15° SW 23:37:07 47° SSE 23:40:39 10° E
STARLINK-1243 3.6 23:34:17 10° WNW 23:38:27 81° NNE 23:42:36 10° ESE
Cosmos 2227 Rocket 2.3 23:33:27 10° NNW 23:39:10 75° ENE 23:43:29 18° SE
Okean 1-7 Rocket 3.7 23:37:39 34° SSW 23:39:33 72° WNW 23:44:06 10° N
ATLAS CENTAUR R/B 2.7 23:35:42 10° WSW 23:39:41 36° NW 23:43:28 10° NNE
Cosmos 2369 Rocket 4.4 23:35:36 10° W 23:39:51 21° NW 23:44:05 10° N
STARLINK-1197 4.0 23:37:05 10° WNW 23:40:59 40° SW 23:41:21 39° SSW
CZ-4 R/B 3.8 23:36:54 10° NNE 23:41:43 77° ESE 23:43:50 33° S
STARLINK-1236 3.6 23:39:15 10° WNW 23:43:25 84° NNE 23:47:34 10° ESE
STARLINK-1198 4.1 23:42:05 10° WNW 23:45:56 37° SW 23:46:07 37° SSW
Cosmos 1602 Rocket 4.0 23:47:23 29° SSE 23:49:14 50° E 23:53:26 10° NNE
Landsat 4 4.4 23:46:00 10° N 23:49:33 43° WNW 23:51:00 28° WSW
SL-08 ROCKET BODY 4.5 23:46:46 27° S 23:50:04 68° E 23:55:53 10° NNE
STARLINK-1199 4.2 23:47:07 10° WNW 23:50:54 35° SW 23:50:55 35° SW
STARLINK-1269 3.5 23:49:13 10° WNW 23:53:24 89° SSW 23:57:33 10° ESE
STARLINK-1210 4.3 23:52:07 10° WNW 23:55:41 33° SW 23:55:41 33° SW
